EN

Hourly Weather Am Rain

Today, 24 January, Sunday

Time Temperature Precipitation Wind Pressure Humidity
00:00 -2°C° 0.1 mm 1 mps 687 mmHg 85%
01:00 -2°C° 0.1 mm 1 mps 687 mmHg 86%
02:00 -4°C° 0.2 mm 2 mps 687 mmHg 88%
03:00 -3°C° 0.2 mm 2 mps 687 mmHg 90%
04:00 -4°C° 0.2 mm 3 mps 688 mmHg 92%
05:00 -3°C° 0.2 mm 2 mps 688 mmHg 93%
06:00 -3°C° 0.2 mm 2 mps 689 mmHg 95%
07:00 -1°C° 0.2 mm 1 mps 689 mmHg 96%
08:00 -1°C° 0.2 mm 1 mps 690 mmHg 94%
09:00 -1°C° 0.2 mm 1 mps 690 mmHg 92%
10:00 0°C° 0.2 mm 1 mps 691 mmHg 91%
11:00 0°C° 0 mm 1 mps 690 mmHg 87%
12:00 +1°C° 0 mm 1 mps 690 mmHg 83%
13:00 +1°C° 0 mm 0 mps 690 mmHg 79%
14:00 0°C° 0 mm 0 mps 690 mmHg 81%
15:00 0°C° 0 mm 0 mps 689 mmHg 84%
16:00 0°C° 0 mm 0 mps 689 mmHg 86%
17:00 -1°C° 0 mm 0 mps 689 mmHg 86%
18:00 -1°C° 0 mm 1 mps 690 mmHg 86%
19:00 -2°C° 0 mm 1 mps 690 mmHg 86%
20:00 -2°C° 0.1 mm 1 mps 690 mmHg 88%
21:00 -2°C° 0.1 mm 1 mps 690 mmHg 90%
22:00 -1°C° 0.1 mm 1 mps 690 mmHg 92%
23:00 -1°C° 0.3 mm 1 mps 690 mmHg 93%

Tomorrow, 25 January, Monday

Time Temperature Precipitation Wind Pressure Humidity
00:00 -1°C° 0.3 mm 1 mps 690 mmHg 94%
01:00 -3°C° 0.3 mm 2 mps 690 mmHg 95%
02:00 -4°C° 0.4 mm 2 mps 691 mmHg 95%
03:00 -4°C° 0.4 mm 2 mps 691 mmHg 95%
04:00 -4°C° 0.4 mm 2 mps 692 mmHg 95%
05:00 -5°C° 0.4 mm 3 mps 692 mmHg 95%
06:00 -5°C° 0.4 mm 3 mps 693 mmHg 94%
07:00 -5°C° 0.4 mm 4 mps 694 mmHg 94%
08:00 -5°C° 0.4 mm 4 mps 694 mmHg 93%
09:00 -5°C° 0.4 mm 4 mps 695 mmHg 93%
10:00 -5°C° 0.4 mm 4 mps 696 mmHg 92%
11:00 -4°C° 0.3 mm 4 mps 696 mmHg 89%
12:00 -3°C° 0.3 mm 4 mps 697 mmHg 86%
13:00 -3°C° 0.3 mm 4 mps 697 mmHg 83%
14:00 -3°C° 0.1 mm 4 mps 697 mmHg 84%
15:00 -2°C° 0.1 mm 3 mps 697 mmHg 84%
16:00 -2°C° 0.1 mm 3 mps 697 mmHg 85%
17:00 -4°C° 0.3 mm 3 mps 698 mmHg 87%
18:00 -4°C° 0.3 mm 3 mps 698 mmHg 89%
19:00 -5°C° 0.3 mm 3 mps 699 mmHg 91%
20:00 -5°C° 0.1 mm 3 mps 699 mmHg 90%
21:00 -5°C° 0.1 mm 3 mps 699 mmHg 89%
22:00 -5°C° 0.1 mm 3 mps 700 mmHg 88%
23:00 -5°C° 0.1 mm 3 mps 700 mmHg 88%

Day after tomorrow, 26 January, Tuesday

Time Temperature Precipitation Wind Pressure Humidity
00:00 -4°C° 0.1 mm 2 mps 700 mmHg 89%
01:00 -4°C° 0.1 mm 2 mps 701 mmHg 89%
02:00 -4°C° 0.1 mm 2 mps 701 mmHg 90%
03:00 -4°C° 0.1 mm 2 mps 701 mmHg 90%
04:00 -4°C° 0.1 mm 2 mps 701 mmHg 90%
05:00 -4°C° 0.2 mm 2 mps 701 mmHg 92%
06:00 -4°C° 0.2 mm 2 mps 701 mmHg 93%
07:00 -4°C° 0.2 mm 2 mps 701 mmHg 95%
08:00 -4°C° 0.2 mm 2 mps 702 mmHg 94%
09:00 -3°C° 0.2 mm 2 mps 702 mmHg 93%
10:00 -2°C° 0.2 mm 2 mps 702 mmHg 91%
11:00 -2°C° 0.1 mm 2 mps 702 mmHg 90%
12:00 -1°C° 0.1 mm 2 mps 702 mmHg 89%
13:00 0°C° 0.1 mm 3 mps 702 mmHg 88%
14:00 -1°C° 0 mm 2 mps 702 mmHg 89%
15:00 +1°C° 0 mm 1 mps 702 mmHg 90%
16:00 +1°C° 0 mm 1 mps 702 mmHg 91%
17:00 +1°C° 0 mm 1 mps 702 mmHg 90%
18:00 0°C° 0 mm 1 mps 702 mmHg 90%
19:00 -1°C° 0 mm 1 mps 702 mmHg 89%
20:00 -1°C° 0 mm 1 mps 702 mmHg 89%
21:00 0°C° 0 mm 1 mps 702 mmHg 89%
22:00 0°C° 0 mm 1 mps 702 mmHg 89%
23:00 0°C° 0.2 mm 1 mps 701 mmHg 91%

27 January, Wednesday

Time Temperature Precipitation Wind Pressure Humidity
00:00 0°C° 0.2 mm 1 mps 701 mmHg 92%
01:00 -2°C° 0.2 mm 2 mps 700 mmHg 94%
02:00 -1°C° 0.2 mm 2 mps 700 mmHg 94%
03:00 +1°C° 0.2 mm 2 mps 699 mmHg 94%
04:00 0°C° 0.2 mm 3 mps 699 mmHg 94%
05:00 +1°C° 0.6 mm 3 mps 699 mmHg 95%
06:00 +1°C° 0.6 mm 3 mps 699 mmHg 96%
07:00 +1°C° 0.6 mm 4 mps 699 mmHg 97%
08:00 +1°C° 0.9 mm 4 mps 700 mmHg 97%
09:00 +1°C° 0.9 mm 4 mps 701 mmHg 98%
10:00 +1°C° 0.9 mm 4 mps 701 mmHg 98%
11:00 +2°C° 0.4 mm 3 mps 701 mmHg 96%
12:00 +2°C° 0.4 mm 3 mps 702 mmHg 95%
13:00 +3°C° 0.4 mm 3 mps 702 mmHg 94%
14:00 +2°C° 0.3 mm 3 mps 702 mmHg 94%
15:00 +2°C° 0.3 mm 3 mps 703 mmHg 94%
16:00 +3°C° 0.3 mm 2 mps 703 mmHg 94%
17:00 +2°C° 0.1 mm 2 mps 703 mmHg 93%
18:00 +2°C° 0.1 mm 2 mps 704 mmHg 93%
19:00 +1°C° 0.1 mm 2 mps 704 mmHg 92%
20:00 -1°C° 0 mm 2 mps 704 mmHg 89%
21:00 -1°C° 0 mm 2 mps 704 mmHg 86%
22:00 -1°C° 0 mm 2 mps 704 mmHg 83%
23:00 -1°C° 0 mm 2 mps 704 mmHg 80%

28 January, Thursday

Time Temperature Precipitation Wind Pressure Humidity
00:00 -2°C° 0 mm 2 mps 703 mmHg 77%
01:00 -2°C° 0 mm 2 mps 703 mmHg 74%
02:00 +1°C° 0 mm 1 mps 702 mmHg 74%
03:00 +1°C° 0 mm 1 mps 702 mmHg 74%
04:00 +2°C° 0 mm 1 mps 702 mmHg 75%
05:00 +2°C° 0.2 mm 1 mps 702 mmHg 79%
06:00 +2°C° 0.2 mm 2 mps 701 mmHg 83%
07:00 +2°C° 0.2 mm 2 mps 701 mmHg 87%
08:00 +2°C° 0.4 mm 2 mps 701 mmHg 90%
09:00 +3°C° 0.4 mm 2 mps 701 mmHg 92%
10:00 +4°C° 0.4 mm 2 mps 701 mmHg 95%
11:00 +5°C° 0 mm 2 mps 700 mmHg 94%
12:00 +5°C° 0 mm 2 mps 700 mmHg 93%
13:00 +5°C° 0 mm 3 mps 700 mmHg 93%
14:00 +5°C° 0.2 mm 3 mps 700 mmHg 92%
15:00 +5°C° 0.2 mm 3 mps 699 mmHg 92%
16:00 +4°C° 0.2 mm 3 mps 699 mmHg 92%
17:00 +4°C° 1.3 mm 3 mps 699 mmHg 93%
18:00 +3°C° 1.3 mm 4 mps 699 mmHg 94%
19:00 +3°C° 1.3 mm 4 mps 700 mmHg 95%

29 January, Friday

Time Temperature Precipitation Wind Pressure Humidity
Show more